Location: Newark
(36.1358°N, 115.1208°W)
Time: 01:08:18
(UTC+00:00)

Vanguard 1 Rocket - Pass Details

Date: 26 February 2020
Orbit: 650 x 4226 km, 34.3° (Epoch: 28 March)

Event Time Altitude Azimuth Distance (km) Brightness Sun altitude
Rises 12:38:31 0° 276° (W) 3,865 - -20.3°
Reaches altitude 10° 12:41:42 10° 272° (W) 2,562 - -19.6°
Exits shadow 12:45:21 35° 252° (WSW) 1,174 7.4 -18.9°
Maximum altitude 12:47:03 53° 196° (SSW) 849 7.1 -18.6°
Drops below altitude 10° 12:51:17 10° 119° (ESE) 2,040 10.1 -17.7°
Sets 12:53:33 0° 114° (ESE) 2,991 11.2 -17.2°
